Weather in Sotszemledelskiy

Russia / Saratov Oblast     51°39′23″N   43°41′03″E
temp.,
°C
wind,
m/s
gust,
m/s
humid.,
%
clouds,
%
prec.,
mm/h
press.,
hPa
HPBL,
m
8 may, sat
sat801:00+5nnw23955 0.0 101756
04:00+5nnw34931 0.0 101869
07:00+6n248762 0.0 1017128
10:00+11nne006312 0.0 1016535
13:00+15ssw334672 0.0 10151030
16:00+17ssw5745100 0.0 10131301
19:00+16s5960100 0.0 1011321
22:00+14s51163100 0.0 1011333
9 may, sun
sun901:00+14s61377100 0.3 1009398
04:00+12s4893100 0.6 1009221
07:00+12sw3594100 0.1 1010276
10:00+10nw4593100 3.6 1010395
13:00+7nw5893100 4.2 1012476
16:00+7nw5892100 8.4 1014533
19:00+6nnw6993100 2.6 1015594
22:00+6nnw71195100 3.7 1017596
10 may, mon
mon1001:00+6n61295100 2.0 1018619
04:00+6n81695100 6.1 1017630
07:00+6nne91794100 4.3 1019669
10:00+6nne101793100 9.6 1020606
13:00+9nne111886100 0.9 1020661
16:00+11ne101784100 0.9 1020740
19:00+12nne101780100 0.0 1020603
22:00+11ne81583100 0.0 1022588
11 may, tue
tue1101:00+10ne91786100 0.1 1022488
04:00+10ne81884100 0.2 1021442
07:00+10ne91884100 0.1 1022481
10:00+12ene6128793 1.1 1024573
13:00+14ene498149 0.0 1024708
16:00+16e3779100 0.4 1023180
19:00+14ese51093100 10.4 1024388
22:00+13ene4897100 15.3 1024401
12 may, wed
wed1201:00+13e71496100 6.3 1024653
04:00+12ene71492100 7.3 1022373
07:00+12ene81888100 0.4 1022478
10:00+14e7188283 0.4 1022638
13:00+16e81676100 0.0 1022589
16:00+20e8147094 0.0 10221132
19:00+19e6137026 0.4 1022676
22:00+15e6158269 0.4 1022381